Beauvechain, Belgium

11:21 AM CET on February 23, 2017 (GMT +0100)
Beauvechain

Weather History for 06458 - February, 2017

Change the Weather History Date:

Friday, February 17, 2017

  Actual Average Record
Temperature  
Mean Temperature 44 °F -  
Max Temperature 47 °F 45 °F - ()
Min Temperature 41 °F 37 °F - ()
Degree Days  
Heating Degree Days 21    
Moisture  
Dew Point 42 °F    
Average Humidity 91    
Maximum Humidity 100    
Minimum Humidity 80    
Precipitation  
Precipitation 0.02 in - - ()
Sea Level Pressure  
Sea Level Pressure 30.34 in    
Wind  
Wind Speed 7 mph ()    
Max Wind Speed 11 mph    
Max Gust Speed -    
Visibility 4.3 miles    
Events Rain    
T = Trace of Precipitation, MM = Missing Value Source: Averaged Metar Reports

Daily Weather History Graph

Daily Weather History Graph

Search for Another Location

Airport or City:

Trip Planner

Search our weather history database for the weather conditions in past years. The results will help you decide how hot, cold, wet, or windy it might be!

Date:

Astronomy

Feb. 17, 2017 Rise Set
Actual Time 7:49 AM CET 6:01 PM CET
Civil Twilight 7:15 AM CET 6:35 PM CET
Nautical Twilight 6:37 AM CET 7:13 PM CET
Astronomical Twilight 5:59 AM CET 7:51 PM CET
Moon 12:11 AM CET (2/17) 10:44 AM CET (2/17)
Length of Visible Light 11h 19m
Length of Day
10h 12m
Waning Gibbous, 63% of the Moon is Illuminated
Feb 17
Waning Gibbous
Feb 18
Last Quarter
Feb 26
New
Mar 5
First Quarter
Mar 12
Full

Hourly Weather History & Observations

Time (CET) Temp. Windchill Dew Point Humidity Pressure Visibility Wind Dir Wind Speed Gust Speed Precip Events Conditions
12:00 AM 44 °F - 41 °F 87% 30.39 in 4 mi WSW 6.7 mph - -   Scattered Clouds
12:25 AM 42.8 °F 38.6 °F 41.0 °F 93% 30.36 in 3.7 mi WSW 6.9 mph - N/A   Overcast
12:55 AM 42.8 °F 37.5 °F 41.0 °F 93% 30.36 in 3.1 mi SW 9.2 mph - N/A   Overcast
1:00 AM 43 °F - 41 °F 90% 30.38 in 3 mi SW 8.9 mph - -   Mostly Cloudy
1:25 AM 42.8 °F 37.5 °F 41.0 °F 93% 30.36 in 3.7 mi WSW 9.2 mph - N/A   Overcast
1:55 AM 42.8 °F 38.0 °F 41.0 °F 93% 30.33 in 3.7 mi WSW 8.1 mph - N/A   Mostly Cloudy
2:00 AM 42 °F - 41 °F 93% 30.37 in 4 mi WSW 6.7 mph - -   Scattered Clouds
2:25 AM 42.8 °F 37.5 °F 41.0 °F 93% 30.33 in 3.1 mi SW 9.2 mph - N/A   Mostly Cloudy
2:55 AM 42.8 °F 37.5 °F 41.0 °F 93% 30.33 in 3.1 mi SW 9.2 mph - N/A   Overcast
3:00 AM 42 °F - 41 °F 93% 30.36 in 3 mi SW 8.9 mph - -   Scattered Clouds
3:18 AM 42.8 °F 37.5 °F 41.0 °F 93% 30.33 in - WSW 9.2 mph - N/A   Overcast
3:25 AM 42.8 °F 37.5 °F 41.0 °F 93% 30.33 in 3.1 mi WSW 9.2 mph - N/A   Mostly Cloudy
3:33 AM 42.8 °F 37.5 °F 41.0 °F 93% 30.33 in - SW 9.2 mph - N/A   Overcast
3:41 AM 42.8 °F 37.5 °F 41.0 °F 93% 30.33 in 3.1 mi SW 9.2 mph - N/A   Overcast
3:55 AM 42.8 °F 37.5 °F 41.0 °F 93% 30.33 in - WSW 9.2 mph - N/A   Overcast
4:00 AM 42 °F - 41 °F 94% 30.35 in 3 mi WSW 8.9 mph - -   Mist
4:25 AM 42.8 °F 37.0 °F 41.0 °F 93% 30.33 in 2.5 mi WSW 10.4 mph - N/A   Overcast
4:55 AM 42.8 °F 37.5 °F 41.0 °F 93% 30.33 in - WSW 9.2 mph - N/A   Mostly Cloudy
5:00 AM 42 °F - 41 °F 94% 30.35 in 3 mi WSW 8.9 mph - -   Mist
5:25 AM 42.8 °F 37.0 °F 41.0 °F 93% 30.33 in 3.1 mi WSW 10.4 mph - N/A   Mostly Cloudy
5:46 AM 42.8 °F 37.5 °F 41.0 °F 93% 30.33 in 3.1 mi SW 9.2 mph - N/A   Overcast
5:55 AM 42.8 °F 37.5 °F 41.0 °F 93% 30.33 in 3.1 mi SW 9.2 mph - N/A   Overcast
6:00 AM 42 °F - 41 °F 94% 30.34 in 3 mi SW 8.9 mph - -   Scattered Clouds
6:21 AM 42.8 °F 37.0 °F 41.0 °F 93% 30.30 in 3.1 mi SW 10.4 mph - N/A   Mostly Cloudy
6:25 AM 42.8 °F 37.0 °F 41.0 °F 93% 30.30 in 3.1 mi SW 10.4 mph - N/A   Mostly Cloudy
6:55 AM 42.8 °F 37.0 °F 41.0 °F 93% 30.30 in 3.1 mi SW 10.4 mph - N/A   Mostly Cloudy
7:00 AM 42 °F - 41 °F 94% 30.33 in 3 mi SW 11.2 mph - -   Mist
7:15 AM 42.8 °F 37.5 °F 41.0 °F 93% 30.30 in 3.1 mi WSW 9.2 mph - N/A   Mostly Cloudy
7:16 AM 42.8 °F 37.5 °F 41.0 °F 93% 30.30 in 3.1 mi WSW 9.2 mph - N/A   Mostly Cloudy
7:25 AM 42.8 °F 37.5 °F 41.0 °F 93% 30.30 in 3.1 mi WSW 9.2 mph - N/A   Mostly Cloudy
7:55 AM 42.8 °F 38.0 °F 41.0 °F 93% 30.30 in 3.1 mi WSW 8.1 mph - N/A   Mostly Cloudy
8:00 AM 43 °F - 41 °F 91% 30.34 in 3 mi WSW 6.7 mph - -   Mist
8:25 AM 42.8 °F 37.5 °F 41.0 °F 93% 30.30 in 3.1 mi WSW 9.2 mph - N/A   Mostly Cloudy
8:33 AM 42.8 °F 37.5 °F 41.0 °F 93% 30.33 in 4.3 mi WSW 9.2 mph - N/A   Mostly Cloudy
8:54 AM 44.6 °F 40.2 °F 41.0 °F 87% 30.33 in 4.3 mi WSW 8.1 mph - N/A   Mostly Cloudy
8:55 AM 44.6 °F 39.7 °F 41.0 °F 87% 30.33 in 4.3 mi WSW 9.2 mph - N/A   Mostly Cloudy
9:00 AM 44 °F - 42 °F 89% 30.34 in 4 mi WSW 8.9 mph - -   Mostly Cloudy
9:10 AM 44.6 °F 39.7 °F 41.0 °F 87% 30.33 in 4.3 mi WSW 9.2 mph - N/A   Mostly Cloudy
9:13 AM 44.6 °F 39.7 °F 41.0 °F 87% 30.33 in 4.3 mi WSW 9.2 mph - N/A   Mostly Cloudy
9:25 AM 44.6 °F 39.7 °F 42.8 °F 93% 30.33 in 4.3 mi WSW 9.2 mph - N/A   Mostly Cloudy
10:25 AM 44.6 °F 39.7 °F 42.8 °F 93% 30.33 in 5.0 mi West 9.2 mph - N/A Rain Light Rain Showers
10:55 AM 44.6 °F 39.7 °F 42.8 °F 93% 30.33 in 5.0 mi West 9.2 mph - N/A Rain Light Rain Showers
11:00 AM 45 °F - 43 °F 91% 30.35 in 5 mi West 8.9 mph - - Rain Light Rain Showers
11:19 AM 44.6 °F 39.7 °F 44.6 °F 100% 30.33 in 1.9 mi West 9.2 mph - N/A Rain Light Rain Showers
11:22 AM 44.6 °F 40.2 °F 42.8 °F 93% 30.33 in 3.1 mi West 8.1 mph - N/A Rain Light Rain Showers
11:25 AM 44.6 °F 40.2 °F 42.8 °F 93% 30.33 in 3.1 mi West 8.1 mph - N/A Rain Light Rain Showers
11:55 AM 44.6 °F 41.4 °F 44.6 °F 100% 30.33 in 5.0 mi West 5.8 mph - N/A   Mostly Cloudy
12:00 PM 45 °F - 44 °F 94% 30.36 in 5 mi West 4.5 mph - - Rain Light Rain Showers
12:55 PM 46.4 °F 42.9 °F 42.8 °F 87% 30.33 in 5.0 mi West 6.9 mph - N/A   Mostly Cloudy
1:00 PM 46 °F - 43 °F 87% 30.35 in 5 mi West 6.7 mph - -   Partly Cloudy
1:25 PM 46.4 °F 42.9 °F 44.6 °F 93% 30.33 in 5.0 mi West 6.9 mph - N/A   Mostly Cloudy
1:55 PM 46.4 °F 42.9 °F 44.6 °F 93% 30.33 in 4.3 mi West 6.9 mph - N/A   Mostly Cloudy
2:00 PM 46 °F - 44 °F 91% 30.35 in 4 mi West 6.7 mph - - Rain Light Rain Showers
2:25 PM 46.4 °F 42.4 °F 44.6 °F 93% 30.33 in 4.3 mi West 8.1 mph - N/A   Mostly Cloudy
2:49 PM 46.4 °F 42.4 °F 44.6 °F 93% 30.33 in 4.3 mi West 8.1 mph - N/A   Mostly Cloudy
2:55 PM 46.4 °F 42.4 °F 44.6 °F 93% 30.33 in 4.3 mi West 8.1 mph - N/A   Mostly Cloudy
3:00 PM 46 °F - 44 °F 92% 30.35 in 4 mi West 6.7 mph - - Rain Light Rain Showers
3:25 PM 46.4 °F 42.4 °F 44.6 °F 93% 30.33 in 4.3 mi WNW 8.1 mph - N/A   Mostly Cloudy
4:55 PM 46.4 °F 42.9 °F 42.8 °F 87% 30.33 in 6.2 mi West 6.9 mph - N/A   Mostly Cloudy
5:00 PM 47 °F - 43 °F 80% 30.35 in 7 mi West 6.7 mph - -   Mostly Cloudy
5:16 PM 46.4 °F 43.5 °F 42.8 °F 87% 30.33 in 6.2 mi WNW 5.8 mph - N/A   Mostly Cloudy
5:25 PM 46.4 °F 43.5 °F 42.8 °F 87% 30.33 in 6.2 mi WNW 5.8 mph - N/A   Mostly Cloudy
5:33 PM 46.4 °F 43.5 °F 42.8 °F 87% 30.33 in 6.2 mi WNW 5.8 mph - N/A   Mostly Cloudy
5:45 PM 44.6 °F 42.2 °F 42.8 °F 93% 30.33 in 6.2 mi WNW 4.6 mph - N/A   Mostly Cloudy
5:55 PM 44.6 °F 41.4 °F 41.0 °F 87% 30.33 in 5.6 mi WNW 5.8 mph - N/A   Scattered Clouds
6:00 PM 44 °F - 42 °F 88% 30.35 in 6 mi WNW 4.5 mph - -   Scattered Clouds
6:25 PM 44.6 °F - 42.8 °F 93% 30.33 in 5.0 mi Variable 1.2 mph - N/A   Mostly Cloudy
6:55 PM 44.6 °F - 42.8 °F 93% 30.36 in 6.2 mi Variable 2.3 mph - N/A   Overcast
7:00 PM 45 °F - 42 °F 85% 30.37 in 6 mi 2.2 mph - -   Clear
7:25 PM 44.6 °F - 41.0 °F 87% 30.36 in 6.2 mi Variable 1.2 mph - N/A   Overcast
7:49 PM 44.6 °F - 41.0 °F 87% 30.36 in 4.3 mi Variable 2.3 mph - N/A   Mostly Cloudy
7:55 PM 44.6 °F - 41.0 °F 87% 30.36 in 5.6 mi Variable 2.3 mph - N/A   Overcast
8:00 PM 44 °F - 42 °F 88% 30.38 in 6 mi 2.2 mph - -   Partly Cloudy
8:25 PM 44.6 °F - 41.0 °F 87% 30.36 in 5.6 mi Variable 2.3 mph - N/A   Overcast
8:55 PM 44.6 °F - 41.0 °F 87% 30.36 in 5.6 mi Variable 2.3 mph - N/A   Mostly Cloudy
9:00 PM 44 °F - 41 °F 86% 30.39 in 6 mi 2.2 mph - -   Mostly Cloudy
9:25 PM 42.8 °F - 41.0 °F 93% 30.36 in 5.0 mi Variable 1.2 mph - N/A   Overcast
9:39 PM 42.8 °F - 41.0 °F 93% 30.36 in 4.3 mi Variable 1.2 mph - N/A   Overcast
9:50 PM 44.6 °F - 41.0 °F 87% 30.36 in 5.6 mi Variable 2.3 mph - N/A   Mostly Cloudy
9:55 PM 44.6 °F - 41.0 °F 87% 30.36 in 5.6 mi Variable 1.2 mph - N/A   Overcast
10:00 PM 44 °F - 41 °F 86% 30.39 in 6 mi 2.2 mph - -   Overcast
10:19 PM 44.6 °F - 41.0 °F 87% 30.36 in 4.3 mi Variable 1.2 mph - N/A   Overcast
10:25 PM 42.8 °F - 41.0 °F 93% 30.36 in 4.3 mi Variable 2.3 mph - N/A   Overcast
10:55 PM 42.8 °F - 41.0 °F 93% 30.36 in 3.7 mi Variable 2.3 mph - N/A   Mostly Cloudy
11:00 PM 43 °F - 41 °F 91% 30.39 in 4 mi 2.2 mph - -   Mostly Cloudy
11:25 PM 42.8 °F - 41.0 °F 93% 30.36 in 3.7 mi Variable 1.2 mph - N/A   Overcast
11:55 PM 42.8 °F - 41.0 °F 93% 30.36 in - Variable 1.2 mph - N/A   Overcast